Location: Dos Palmas
(32.4468°N, 116.8732°W)
Time: 02:23:36
(UTC+00:00)

CZ-2D R/B - Pass Details

Date: 20 June 2021
Orbit: 791 x 845 km, 98.7° (Epoch: 27 July)

Event Time Altitude Azimuth Distance (km) Brightness Sun altitude
Rises 10:02:45 0° 0° (N) 3,293 6.1 -25.7°
Reaches altitude 10° 10:05:17 10° 350° (N) 2,361 5.1 -25.4°
Maximum altitude 10:09:49 31° 290° (WNW) 1,357 3.1 -24.8°
Enters shadow 10:09:49 31° 290° (WNW) 1,357 3.1 -24.8°
